Regional Weather Roundup
Issued by NWS Northern Indiana

Home | Current Version | Previous Version | Text Only | Print | Product List | Glossary On
Versions: 1 2 3 4 5 6 7 8 9 10 11 12 13 14 15 16 17 18 19 20 21 22 23 24 25 26 27 28 29 30 31 32 33 34 35 36 37 38 39 40 41 42 43 44 45 46 47 48 49 50
000
ASUS43 KIWX 202310
RWRIWX

KIWX WEATHER ROUNDUP
NATIONAL WEATHER SERVICE NORTHERN INDIANA
600 PM EST THU NOV 20 2014

NOTE: "FAIR" INDICATES FEW OR NO CLOUDS BELOW 12,000 FEET WITH NO
SIGNIFICANT WEATHER AND/OR OBSTRUCTIONS TO VISIBILITY.

* THESE STATIONS ARE NOT UNDER NWS QUALITY CONTROL. THEY ALSO MAY NOT
  REPORT WEATHER SUCH AS PRECIPITATION OR FOG.

INZ001>027-210000-
NORTHERN INDIANA

CITY           SKY/WX    TMP DP  RH WIND       PRES   REMARKS
GARY*          PTCLDY    27   3  36 W14G29    30.14R WCI  15
VALPARAISO     CLEAR     24   3  40 W15G26    30.13R WCI  11
MICHIGAN CITY* PTCLDY    27   1  33 W12G20    30.12R WCI  16
LAPORTE*       MOCLDY    26   6  42 W10       30.11R WCI  16
KNOX*          CLEAR     25   4  39 W13       30.11R WCI  14
SOUTH BEND     MOCLDY    24   7  48 W14       30.10R WCI  12
ELKHART*       PTCLDY    25   7  46 W12G18    30.09R WCI  14
GOSHEN         CLEAR     23   8  52 W13       30.08R WCI  11
MONTICELLO*    CLEAR     26  12  54 W8        30.14R WCI  18
LOGANSPORT*    CLEAR     25  12  58 W8        30.14R WCI  16
ROCHESTER*     CLEAR     28   9  43 W8        30.11R WCI  20
WARSAW*        CLEAR     23   9  54 W14G20    30.09R WCI  11
ANGOLA*        PTCLDY    23   9  54 W10       30.05R WCI  12
FORT WAYNE     PTCLDY    25  12  58 W15       30.09R WCI  13
HUNTINGTON*    CLEAR     25  12  57 W14G20    30.10R WCI  13
PERU/GRISSOM   CLEAR     25  15  68 W13       30.12R WCI  13
MARION*        MOCLDY    25  15  65 W13       30.13R WCI  14

$$
INZ028>050-210000-
CENTRAL INDIANA

CITY           SKY/WX    TMP DP  RH WIND       PRES   REMARKS
LAFAYETTE      CLEAR     27  12  53 W8        30.16R WCI  19
KOKOMO*        PTCLDY    27  12  54 W14       30.13R WCI  15
MUNCIE*        CLOUDY    26  15  63 W13       30.13R WCI  15
INDIANAPOLIS   PTCLDY    26  14  60 W13       30.17R WCI  15

$$
MIZ043>046-050>051-056>058-064>065-071>073-077>080-210000-
SOUTHWEST LOWER MICHIGAN

CITY           SKY/WX    TMP DP  RH WIND       PRES   REMARKS
BATTLE CREEK   LGT SNOW  22  15  75 W10       30.05R WCI  11
BENTON HARBOR  MOCLDY    25   6  44 NW10G29   30.09R WCI  15
COLDWATER*     MOCLDY    24  14  66 W14       30.04R WCI  11
HILLSDALE*     LGT SNOW  21  16  81 W8        30.02R WCI  11
HOLLAND        CLOUDY    25  11  55 W14G20    30.06R WCI  13
GRAND RAPIDS   LGT SNOW  20  16  84 W7        30.04R VSB 1   WCI  11
KALAMAZOO      LGT SNOW  22  15  75 W16       30.06R WCI   8
STURGIS*       CLOUDY    25  10  54 W10G17    30.05R WCI  15
THREE RIVERS*  MOCLDY    24  11  58 W9        30.07R WCI  14

$$
OHZ001>008-015>018-024>025-210000-
NORTHWEST OHIO

CITY           SKY/WX    TMP DP  RH WIND       PRES   REMARKS
WAUSEON*       FAIR      23  10  58 W12       30.06R WCI  12
DEFIANCE       PTCLDY    25  10  53 VRB5      30.08R WCI  19
FINDLAY        CLOUDY    26  15  63 SW16      30.07R WCI  14
TOLEDO EXPRESS CLEAR     23  10  57 W13       30.06R WCI  11
TOLEDO METCALF CLEAR     24  10  55 W13       30.07R WCI  12
LIMA           CLOUDY    26  15  63 SW17G26   30.08R WCI  13

$$
AND FOR LAKE MICHIGAN COASTAL AND OPEN LAKE BUOY OBSERVATIONS

STATION/POSITION TEMP    WIND        PRES    VSBY  WAVE
                 AIR SEA DIR/SP/G                  HT/PER
                 (F)     (DEG/KT/KT) (MB)    (MI)  (FT/S)
CALUMET HARBOR    26     260/  8/ 14 1018.9R
MICHIGAN CITY     27     250/ 28/ 32   N/A
SAINT JOSEPH      28     270/ 19/ 25 1020.0R
SOUTH LAKE BUOY   26 43  280/ 21/ 27 1019.4R         6/ 6
MICHIGAN CITY CG     37                N/A       6   6

$$
&&



USA.gov is the U.S. government's official web portal to all federal, state and local government web resources and services.